Snowfall_Accumulation
0.0 0.0 0.0 0.0 0.0 0.0 0.0 0.0 0.0 0.0 0.0 0.0 0.0 0.0 0.0 0.0 0.0 0.0 0.0 0.0 0.0 0.0
0.0 0.0 0.0 0.0 0.0 0.0 0.0 0.0 0.0 0.0 0.0 0.0 0.0 0.0 0.0 0.0 0.0 0.0 0.0 0.0 0.0 0.0
0.0 0.0 0.0 0.0 0.0 0.0 0.0 0.0 0.0 0.0 0.0 0.0 0.0 0.0 0.0 0.0 0.0 0.0 0.0 0.0 0.0 0.0
0.0 0.0 0.0 0.0 0.0 0.0 0.0 0.0 0.0 0.0 0.0 0.0 0.0 0.0 0.0 0.0 0.0 0.0 0.0 0.0 0.0 0.0
0.0 0.0 0.0 0.0 0.0 0.0 0.0 0.0 0.0 0.0 0.0 0.0 0.0 0.0 0.0 0.0 0.0 0.0 0.0 0.0 0.0 0.0
0.0 0.0 0.0 0.0 0.0 0.0 0.0 0.0 0.0 0.0 0.0 0.1 0.1 0.0 0.0 0.0 0.0 0.0 0.0 0.1 0.1 0.0
0.0 0.1 0.1 0.1 0.1 0.0 0.0 0.0 0.0 0.1 0.1 0.3 0.3 0.2 0.1 0.1 0.0 0.0 0.1 0.1 0.1 0.1
0.1 0.1 0.0 0.1 0.2 0.3 0.1 0.0 0.1 0.1 0.2 0.4 0.5 0.9 0.7 0.4 0.3 0.4 0.2 0.3 0.4 0.7
0.1 0.2 0.1 0.3 0.4 0.2 0.1 0.5 0.6 0.7 0.8 0.9 1.6 1.8 1.6 1.1 1.0 1.1 1.3 0.9 0.8 0.9
0.0 0.0 0.0 0.0 0.0 0.0 0.2 0.1 0.2 1.4 2.0 2.9 3.7 3.3 3.8 3.2 3.3 3.1 3.5 3.3 2.9 2.0
0.0 0.0 0.0 0.0 0.0 0.0 0.0 0.0 0.0 1.1 2.0 2.3 3.7 4.3 5.3 5.4 6.8 6.9 7.3 9.0 6.7 6.1
0.0 0.0 0.0 0.0 0.0 0.0 0.0 0.0 0.0 0.0 0.7 1.3 2.1 2.7 3.6 4.3 5.9 6.4 6.3 7.3 8.4 7.4
0.0 0.0 0.0 0.0 0.0 0.0 0.0 0.0 0.0 0.0 0.0 0.3 0.9 0.1 1.1 1.7 2.5 3.1 3.6 3.4 2.9 4.2
0.0 0.0 0.0 0.0 0.0 0.0 0.0 0.0 0.0 0.0 0.0 0.0 0.1 0.1 0.0 0.0 0.0 1.1 1.0 1.3 1.5 2.8